Date String (YYYY-MM-DD hh:mm:ss) UTC,Instrument flags,absolute air pressure of the measurement (hPa),sample flow rate (lpm),inlet stack bypass flow (lpm),air temperature of the measurement (°C),ambient temperature measured by the external sensor (°C),aerosol sample conditioner tube jacket temperature (°C),OPC LED temperature (°C),internal box temperature (°C),relative humidity of the measurement (%),span deviation,mass concentration of particles derived from Lorenz-Mie calculation of OPC scattering (μg/m³),mass concentration of particles derived from Lorenz-Mie calculation of OPC scattering (μg/m³),mass concentration of particles derived from Lorenz-Mie calculation of OPC scattering (μg/m³)
DateTimeUTC,F1_M11,P_M11,Q1_M11,Q2_M11,T1_M11,T2_M11,T3_M11,T4_M11,T5_M11,U1_M11,ZSPAN_M11,X2_M11,X0_M11,X1_M11
2023-12-18 17:00:00,SystemResetWarning,0832.8,5.00,000.00,020.2,019.6,000.0,028.4,021.6,12.5,0000.0,0001.95,0003.65,0001.57
2023-12-18 17:01:00,SystemResetWarning,0832.7,5.00,000.00,020.2,019.6,000.0,028.4,021.6,12.4,0000.0,0001.97,0003.77,0001.56
2023-12-18 17:02:00,SystemResetWarning,0832.7,5.00,000.00,020.3,019.6,000.0,028.4,021.6,12.6,0000.0,0001.97,0003.74,0001.57
2023-12-18 17:03:00,SystemResetWarning,0832.7,5.00,000.00,020.3,019.6,000.0,028.4,021.6,12.8,0000.0,0001.96,0003.71,0001.58
2023-12-18 17:04:00,SystemResetWarning,0832.7,5.00,000.00,020.3,019.6,000.0,028.4,021.6,13.3,0000.0,0001.98,0003.71,0001.59
2023-12-18 17:05:00,SystemResetWarning,0832.7,5.00,000.00,020.3,019.6,000.0,028.4,021.6,13.7,0000.0,0001.98,0003.62,0001.61
2023-12-18 17:06:00,SystemResetWarning,0832.7,5.00,000.00,020.3,019.6,000.0,028.4,021.7,13.3,0000.0,0002.03,0003.73,0001.63
2023-12-18 17:07:00,SystemResetWarning,0832.7,5.01,000.00,020.3,019.6,000.0,028.5,021.7,13.7,0000.0,0002.05,0003.72,0001.64
2023-12-18 17:08:00,SystemResetWarning,0832.7,5.00,000.00,020.3,019.7,000.0,028.5,021.7,14.0,0000.0,0002.03,0003.60,0001.64
2023-12-18 17:09:00,SystemResetWarning,0832.7,5.00,000.00,020.3,019.7,000.0,028.5,021.7,14.0,0000.0,0002.05,0003.68,0001.64
2023-12-18 17:10:00,SystemResetWarning,0832.8,5.00,000.00,020.3,019.7,000.0,028.5,021.7,13.3,0000.0,0002.05,0003.65,0001.64
2023-12-18 17:11:00,SystemResetWarning,0832.7,5.00,000.00,020.4,019.7,000.0,028.5,021.7,13.3,0000.0,0002.08,0003.77,0001.65
2023-12-18 17:12:00,SystemResetWarning,0832.8,5.00,000.00,020.4,019.7,000.0,028.5,021.7,12.9,0000.0,0002.09,0003.68,0001.67
2023-12-18 17:13:00,SystemResetWarning,0832.7,5.00,000.00,020.4,019.7,000.0,028.5,021.7,13.1,0000.0,0002.09,0003.71,0001.68
2023-12-18 17:14:00,SystemResetWarning,0832.7,4.99,000.00,020.4,019.7,000.0,028.5,021.8,13.2,0000.0,0002.10,0004.52,0001.68
2023-12-18 17:15:00,SystemResetWarning,0832.6,4.99,000.00,020.4,019.7,000.0,028.6,021.8,13.6,0000.0,0002.09,0004.91,0001.68
2023-12-18 17:16:00,SystemResetWarning,0832.7,4.99,000.00,020.4,019.8,000.0,028.6,021.8,13.5,0000.0,0002.10,0004.45,0001.69
2023-12-18 17:17:00,SystemResetWarning,0832.6,5.00,000.00,020.4,019.8,000.0,028.6,021.8,12.8,0000.0,0002.14,0004.37,0001.73
2023-12-18 17:18:00,SystemResetWarning,0832.6,5.00,000.00,020.5,019.8,000.0,028.6,021.8,13.5,0000.0,0002.18,0004.41,0001.75
2023-12-18 17:19:00,SystemResetWarning,0832.7,5.00,000.00,020.5,019.8,000.0,028.6,021.9,13.9,0000.0,0002.29,0005.85,0001.81
2023-12-18 17:20:00,SystemResetWarning,0832.7,5.00,000.00,020.5,019.8,000.0,028.6,021.9,13.7,0000.0,0002.45,0006.41,0001.87
2023-12-18 17:21:00,SystemResetWarning,0832.7,5.00,000.00,020.5,019.9,000.0,028.6,021.9,14.2,0000.0,0002.46,0007.19,0001.88
2023-12-18 17:22:00,SystemResetWarning,0832.7,5.00,000.00,020.5,019.9,000.0,028.7,021.9,14.0,0000.0,0002.47,0007.30,0001.89
2023-12-18 17:23:00,SystemResetWarning,0832.7,5.00,000.00,020.5,019.9,000.0,028.7,021.9,13.6,0000.0,0002.50,0007.48,0001.90
2023-12-18 17:24:00,SystemResetWarning,0832.6,5.00,000.00,020.6,019.9,000.0,028.7,021.9,13.5,0000.0,0002.53,0007.66,0001.92
2023-12-18 17:25:00,SystemResetWarning,0832.6,5.00,000.00,020.6,019.9,000.0,028.7,021.9,13.3,0000.0,0002.53,0007.34,0001.94
2023-12-18 17:26:00,SystemResetWarning,0832.6,5.00,000.00,020.6,020.0,000.0,028.7,022.0,12.7,0000.0,0002.55,0007.38,0001.96
2023-12-18 17:27:00,SystemResetWarning,0832.5,4.99,000.00,020.6,020.0,000.0,028.7,022.0,12.5,0000.0,0002.66,0007.58,0001.98
2023-12-18 17:28:00,SystemResetWarning,0832.5,4.99,000.00,020.6,020.0,000.0,028.7,022.0,12.3,0000.0,0002.79,0008.20,0001.98
2023-12-18 17:29:00,SystemResetWarning,0832.6,5.01,000.00,020.6,020.0,000.0,028.8,022.0,12.3,0000.0,0002.87,0008.92,0001.97
2023-12-18 17:30:00,SystemResetWarning,0832.5,5.01,000.00,020.7,020.1,000.0,028.8,022.0,12.3,0000.0,0002.76,0008.58,0001.94
2023-12-18 17:31:00,SystemResetWarning,0832.5,5.00,000.00,020.7,020.1,000.0,028.8,022.0,11.5,0000.0,0002.66,0008.38,0001.91
2023-12-18 17:32:00,SystemResetWarning,0832.5,5.00,000.00,020.7,020.1,000.0,028.8,022.0,11.9,0000.0,0002.66,0007.92,0001.92
2023-12-18 17:33:00,SystemResetWarning,0832.5,5.01,000.00,020.7,020.1,000.0,028.8,022.1,11.6,0000.0,0002.63,0007.78,0001.92
2023-12-18 17:34:00,SystemResetWarning,0832.5,4.99,000.00,020.7,020.2,000.0,028.8,022.1,11.7,0000.0,0002.59,0007.75,0001.92
2023-12-18 17:35:00,SystemResetWarning,0832.5,5.00,000.00,020.8,020.2,000.0,028.9,022.1,12.0,0000.0,0002.57,0007.62,0001.91
2023-12-18 17:36:00,SystemResetWarning,0832.6,5.00,000.00,020.8,020.2,000.0,028.9,022.1,12.8,0000.0,0002.60,0007.55,0001.92
2023-12-18 17:37:00,SystemResetWarning,0832.5,5.00,000.00,020.8,020.2,000.0,028.9,022.2,12.7,0000.0,0002.59,0007.31,0001.92
2023-12-18 17:38:00,SystemResetWarning,0832.6,4.99,000.00,020.8,020.2,000.0,028.9,022.2,12.3,0000.0,0002.51,0007.04,0001.91
2023-12-18 17:39:00,SystemResetWarning,0832.5,5.00,000.00,020.8,020.2,000.0,028.9,022.2,12.4,0000.0,0002.33,0006.11,0001.88
2023-12-18 17:40:00,SystemResetWarning,0832.5,5.00,000.00,020.8,020.3,000.0,028.9,022.2,12.0,0000.0,0002.20,0004.74,0001.87
2023-12-18 17:41:00,SystemResetWarning,0832.5,5.00,000.00,020.9,020.3,000.0,028.9,022.2,11.7,0000.0,0002.28,0004.58,0001.89
2023-12-18 17:42:00,SystemResetWarning,0832.5,5.00,000.00,020.9,020.3,000.0,029.0,022.3,11.8,0000.0,0002.36,0005.86,0001.93
2023-12-18 17:43:00,SystemResetWarning,0832.4,5.00,000.00,020.9,020.3,000.0,029.0,022.3,11.9,0000.0,0002.38,0006.06,0001.94
2023-12-18 17:44:00,SystemResetWarning,0832.3,5.00,000.00,020.9,020.3,000.0,029.0,022.3,12.0,0000.0,0002.40,0006.12,0001.97
2023-12-18 17:45:00,SystemResetWarning,0832.3,5.00,000.00,020.9,020.4,000.0,029.0,022.3,12.1,0000.0,0002.47,0006.14,0001.99
2023-12-18 17:46:00,SystemResetWarning,0832.3,5.00,000.00,020.9,020.4,000.0,029.0,022.3,11.9,0000.0,0002.47,0006.35,0002.01
2023-12-18 17:47:00,SystemResetWarning,0832.3,5.00,000.00,021.0,020.4,000.0,029.1,022.4,11.6,0000.0,0002.47,0006.83,0002.01
2023-12-18 17:48:00,SystemResetWarning,0832.3,5.00,000.00,021.0,020.4,000.0,029.1,022.4,11.1,0000.0,0002.48,0006.77,0002.01
2023-12-18 17:49:00,SystemResetWarning,0832.3,5.00,000.00,021.0,020.5,000.0,029.1,022.4,11.1,0000.0,0002.51,0006.78,0002.03
2023-12-18 17:50:00,SystemResetWarning,0832.3,5.00,000.00,021.0,020.5,000.0,029.1,022.4,11.5,0000.0,0002.53,0006.89,0002.06
2023-12-18 17:51:00,SystemResetWarning,0832.3,5.00,000.00,021.0,020.5,000.0,029.1,022.5,11.4,0000.0,0002.54,0007.32,0002.08
2023-12-18 17:52:00,SystemResetWarning,0832.3,5.00,000.00,021.1,020.5,000.0,029.1,022.5,11.3,0000.0,0002.55,0007.34,0002.08
2023-12-18 17:53:00,SystemResetWarning,0832.3,5.00,000.00,021.1,020.5,000.0,029.2,022.5,11.6,0000.0,0002.44,0005.64,0002.04
2023-12-18 17:54:00,SystemResetWarning,0832.3,5.00,000.00,021.1,020.6,000.0,029.2,022.5,11.5,0000.0,0002.41,0005.08,0002.03
2023-12-18 17:55:00,SystemResetWarning,0832.2,5.00,000.00,021.1,020.6,000.0,029.2,022.5,11.6,0000.0,0002.41,0004.92,0002.04
2023-12-18 17:56:00,SystemResetWarning,0832.2,5.00,000.00,021.2,020.6,000.0,029.2,022.5,11.5,0000.0,0002.41,0004.97,0002.04
2023-12-18 17:57:00,SystemResetWarning,0832.2,4.99,000.00,021.2,020.6,000.0,029.2,022.6,11.6,0000.0,0002.40,0004.53,0002.05
2023-12-18 17:58:00,SystemResetWarning,0832.2,4.99,000.00,021.2,020.6,000.0,029.3,022.6,11.6,0000.0,0002.46,0003.95,0002.09
2023-12-18 17:59:00,SystemResetWarning,0832.2,5.01,000.00,021.2,020.7,000.0,029.3,022.6,11.7,0000.0,0002.49,0003.96,0002.13
